Flag for Germany Weather past 2 weeks in Leonberg, Baden-Württemberg, Germany

Now
64 °F

Partly sunny.


Feels Like: 64 °F
Forecast: 56 / 76 °F
Wind: 1 mph from North

Location: Stuttgart-Echterdingen

Current Time: Jul 30, 2014 at 9:40:01 AM

Latest Report: Jul 30, 2014 at 9:20 AM


Visibility: N/A

Pressure: 29.83 "Hg

Humidity: 94%

Dew point: 63 °F

Location of LeonbergLocation

Historic Weather in Leonberg — Graph

°F

Leonberg temperature yesterday

Maximum temperature yesterday: 68 °F (at 3:20 PM)
Minimum temperature yesterday: 61 °F (at 12:20 AM)
Average temperature yesterday: 64 °F

Past Weeks' High & Low Weather Summary

 TemperatureHumidityPressure
High91 °F (Jul 19, 3:50 PM)100% (Jul 20, 11:50 PM)30.21 "Hg (Jul 20, 11:50 PM)
Low57 °F (Jul 16, 2:50 AM)22% (Jul 18, 2:50 PM)29.77 "Hg (Jul 28, 6:20 PM)
Average69 °F70%29.98 "Hg
* Reported Jul 15 8:20 AM — Jul 30 8:50 AM, Leonberg, Weather by CustomWeather, © 2014

Note: Actual official high and low records may vary slightly from our data, if they occured in-between our weather recording intervals... More about our weather records

Advertising

Leonberg weather history for previous 24 hours

 ConditionsComfort  
Time TempWeatherWind HumidityBarometerVisibility
8:50 AM
Jul 30
64 °FBroken clouds.2 mph94%29.83 "HgN/A
8:20 AM64 °FBroken clouds.2 mph94%29.80 "HgN/A
7:50 AM63 °FPartly sunny.2 mph94%29.80 "HgN/A
7:20 AM63 °FDrizzle. Fog.6 mph100%29.80 "Hg3 mi
6:50 AM63 °FPassing clouds.5 mph94%29.80 "Hg3 mi
6:20 AM63 °FPartly cloudy.2 mph94%29.80 "Hg6 mi
5:50 AM63 °FLight rain. Partly cloudy.1 mph94%29.80 "HgN/A
5:20 AM63 °FRain. Partly cloudy.1 mph94%29.80 "Hg4 mi
4:50 AM63 °FRain. Partly cloudy.3 mph94%29.80 "Hg4 mi
4:20 AM63 °FRain. Partly cloudy.2 mph94%29.80 "Hg4 mi
3:50 AM63 °FRain. Partly cloudy.1 mph94%29.80 "Hg4 mi
3:20 AM63 °FLight rain. Passing clouds.1 mph94%29.80 "HgN/A
2:50 AM63 °FLight rain. Passing clouds.1 mph94%29.80 "Hg6 mi
2:20 AM63 °FLight rain. Partly cloudy.2 mph94%29.80 "Hg6 mi
1:50 AM63 °FPassing clouds.2 mph94%29.80 "HgN/A
1:20 AM63 °FPassing clouds.3 mph94%29.80 "HgN/A
12:50 AM64 °FPartly cloudy.2 mph88%29.80 "HgN/A
12:20 AM64 °FPassing clouds.3 mph88%29.80 "HgN/A
11:50 PM
Jul 29
64 °FPassing clouds.2 mph94%29.80 "HgN/A
11:20 PM64 °FPartly cloudy.2 mph94%29.80 "HgN/A
10:50 PM64 °FPartly cloudy.1 mph94%29.80 "HgN/A
10:20 PM66 °FLight rain. Partly cloudy.2 mph88%29.80 "HgN/A
9:50 PM66 °FLight rain. Broken clouds.3 mph88%29.80 "HgN/A
9:20 PM66 °FLight rain. Partly sunny.5 mph88%29.80 "HgN/A
8:50 PM66 °FSprinkles. Partly sunny.3 mph88%29.80 "HgN/A
8:20 PM66 °FSprinkles. Partly sunny.3 mph88%29.80 "HgN/A
7:50 PM68 °FSprinkles. Broken clouds.5 mph83%29.80 "HgN/A
7:20 PM68 °FPartly sunny.3 mph83%29.80 "HgN/A
6:50 PM68 °FBroken clouds.3 mph83%29.80 "HgN/A
6:20 PM68 °FPartly sunny.3 mph83%29.80 "HgN/A
5:50 PM68 °FPartly sunny.5 mph83%29.80 "HgN/A
5:20 PM68 °FBroken clouds.6 mph83%29.77 "HgN/A
4:50 PM68 °FBroken clouds.5 mph83%29.80 "HgN/A
4:20 PM68 °FBroken clouds.2 mph83%29.80 "HgN/A
3:50 PM68 °FPartly sunny.3 mph78%29.80 "HgN/A
3:20 PM68 °FPartly sunny.3 mph78%29.80 "HgN/A
2:50 PM66 °FPartly sunny.1 mph88%29.80 "HgN/A
2:20 PM66 °FLight rain. Partly sunny.3 mph83%29.80 "HgN/A
1:50 PM64 °FPartly sunny.5 mph88%29.83 "HgN/A
1:20 PM63 °FLight rain. Partly sunny.6 mph94%29.83 "HgN/A
12:50 PM64 °FBroken clouds.7 mph88%29.83 "HgN/A
12:20 PM64 °FBroken clouds.6 mph88%29.83 "HgN/A
11:50 AM64 °FBroken clouds.6 mph88%29.83 "HgN/A
11:20 AM64 °FBroken clouds.5 mph88%29.80 "Hg6 mi
10:50 AM63 °FDrizzle. Broken clouds.1 mph94%29.83 "Hg4 mi
10:20 AM63 °FLight rain. Broken clouds.1 mph94%29.83 "Hg4 mi
9:50 AM63 °FBroken clouds.2 mph94%29.83 "Hg4 mi
9:20 AM63 °FFog.2 mph94%29.83 "Hg3 mi
Weather by CustomWeather, © 2014

See weather overviewHow to use our weather pages